Simultaneous Nadir Overpasses (SNOs) Predictions

Prediction of SNOs between AURA and NPP Satellite Orbit:

Table of predicted SNOs for the next 14.0 days since TLE Epoch: 5/8/2020
Index Date (AURA) Time (AURA) Lat,Lon (AURA) SZA (AURA ) Date (NPP) Time (NPP) Lat,Lon (NPP) SZA (NPP ) Distance(km) Time Diff (sec)
1 05/11/2020 11:25:08 79.44, -94.88 74.56 05/11/2020 11:24:20 79.45, -94.76 74.57 2.48 48
2 05/11/2020 12:14:31 -79.60, 73.87 105.69 05/11/2020 12:15:01 -79.60, 73.81 105.70 1.27 30
3 05/14/2020 03:41:36 79.48, 21.23 73.86 05/14/2020 03:41:14 79.48, 21.24 73.87 0.20 22
4 05/14/2020 04:30:56 -79.75,-169.18 106.56 05/14/2020 04:31:51 -79.75,-169.04 106.63 2.76 55
5 05/16/2020 19:08:42 -79.33, -31.54 106.53 05/16/2020 19:07:28 -79.33, -31.46 106.49 1.64 74
6 05/16/2020 19:58:02 79.54, 137.58 73.15 05/16/2020 19:58:06 79.54, 137.50 73.16 1.65 4
7 05/19/2020 11:25:09 -79.39, 84.78 107.19 05/19/2020 11:24:21 -79.39, 84.79 107.16 0.10 48
8 05/19/2020 12:14:30 79.57,-106.37 72.55 05/19/2020 12:15:00 79.56,-106.51 72.55 3.02 30
9 05/22/2020 03:41:36 -79.45,-158.92 107.80 05/22/2020 03:41:14 -79.45,-158.97 107.78 1.01 22




NCC Satellite Simultaneous Nadir Overpasses (SNOs) Prediction Service
